Time,TemperatureF,DewpointF,PressureIn,WindDirection,WindDirectionDegrees,WindSpeedMPH,WindSpeedGustMPH,Humidity,HourlyPrecipIn,Conditions,Clouds,dailyrainin,SoftwareType,DateUTC
2013-05-29 00:01:00,47.1,37.1,29.71,NNE,23,1.0,1.0,68,0.00,,,0.00,WeatherCatV1.11B39,2013-05-29 06:01:00,
2013-05-29 00:06:00,46.8,36.0,29.71,NNE,23,0.0,0.0,66,0.00,,,0.00,WeatherCatV1.11B39,2013-05-29 06:06:00,
2013-05-29 00:11:00,46.6,35.9,29.71,NNE,23,0.0,1.0,66,0.00,,,0.00,WeatherCatV1.11B39,2013-05-29 06:11:00,
2013-05-29 00:16:00,46.5,37.6,29.71,NNE,23,0.0,0.0,71,0.00,,,0.00,WeatherCatV1.11B39,2013-05-29 06:16:00,
2013-05-29 00:21:00,46.2,36.2,29.71,NNE,23,0.0,0.0,68,0.00,,,0.00,WeatherCatV1.11B39,2013-05-29 06:21:00,
2013-05-29 00:26:00,46.1,35.4,29.71,NNE,23,0.0,0.0,66,0.00,,,0.00,WeatherCatV1.11B39,2013-05-29 06:26:00,
2013-05-29 00:31:00,46.3,37.4,29.71,NNE,23,0.0,0.0,71,0.00,,,0.00,WeatherCatV1.11B39,2013-05-29 06:31:00,
2013-05-29 00:36:00,46.4,36.4,29.72,NNE,23,0.0,2.0,68,0.00,,,0.00,WeatherCatV1.11B39,2013-05-29 06:36:00,
2013-05-29 00:41:00,46.3,36.0,29.72,NNE,23,0.0,0.0,67,0.00,,,0.00,WeatherCatV1.11B39,2013-05-29 06:41:00,
2013-05-29 00:46:00,46.2,37.3,29.72,NNE,23,0.0,0.0,71,0.00,,,0.00,WeatherCatV1.11B39,2013-05-29 06:46:00,
2013-05-29 00:51:00,46.0,36.8,29.72,NNE,23,0.0,1.0,70,0.00,,,0.00,WeatherCatV1.11B39,2013-05-29 06:51:00,
2013-05-29 00:56:00,45.9,37.0,29.73,NNE,23,0.0,0.0,71,0.00,,,0.00,WeatherCatV1.11B39,2013-05-29 06:56:00,
2013-05-29 01:01:00,45.7,36.1,29.73,NNE,21,0.0,0.0,69,0.00,,,0.00,WeatherCatV1.11B39,2013-05-29 07:01:00,
2013-05-29 01:06:00,45.6,36.7,29.73,NNE,21,0.0,2.0,71,0.00,,,0.00,WeatherCatV1.11B39,2013-05-29 07:06:00,
2013-05-29 01:11:00,45.5,37.0,29.73,NNE,21,0.0,0.0,72,0.00,,,0.00,WeatherCatV1.11B39,2013-05-29 07:11:00,
2013-05-29 01:16:00,45.5,38.0,29.74,NNE,24,0.0,1.0,75,0.00,,,0.00,WeatherCatV1.11B39,2013-05-29 07:16:00,
2013-05-29 01:21:00,45.4,38.3,29.74,NNW,333,0.0,3.0,76,0.00,,,0.00,WeatherCatV1.11B39,2013-05-29 07:21:00,
2013-05-29 01:26:00,46.0,36.8,29.74,West,277,0.0,0.0,70,0.00,,,0.00,WeatherCatV1.11B39,2013-05-29 07:26:00,
2013-05-29 01:31:00,46.3,37.4,29.73,West,278,0.0,0.0,71,0.00,,,0.00,WeatherCatV1.11B39,2013-05-29 07:31:00,
2013-05-29 01:34:00,46.6,37.3,29.74,West,264,3.0,7.0,70,0.00,,,0.00,WeatherCatV1.11B39,2013-05-29 07:34:00,
2013-05-29 01:39:00,47.9,39.0,29.73,WNW,298,8.0,11.0,71,0.00,,,0.00,WeatherCatV1.11B39,2013-05-29 07:39:00,
2013-05-29 01:44:00,49.1,39.7,29.73,NW,306,9.0,14.0,70,0.00,,,0.00,WeatherCatV1.11B39,2013-05-29 07:44:00,
2013-05-29 01:49:00,49.8,39.7,29.73,WSW,248,5.0,10.0,68,0.00,,,0.00,WeatherCatV1.11B39,2013-05-29 07:49:00,
2013-05-29 01:54:00,50.3,39.8,29.74,West,280,3.0,10.0,67,0.00,,,0.00,WeatherCatV1.11B39,2013-05-29 07:54:00,
2013-05-29 01:59:00,50.6,39.7,29.74,West,279,8.0,9.0,66,0.00,,,0.00,WeatherCatV1.11B39,2013-05-29 07:59:00,
2013-05-29 02:04:00,50.6,39.7,29.74,WNW,284,6.0,12.0,66,0.00,,,0.00,WeatherCatV1.11B39,2013-05-29 08:04:00,
2013-05-29 02:09:00,50.6,39.7,29.74,NW,319,6.0,8.0,66,0.00,,,0.00,WeatherCatV1.11B39,2013-05-29 08:09:00,
2013-05-29 02:14:00,50.6,39.7,29.74,West,274,0.0,7.0,66,0.00,,,0.00,WeatherCatV1.11B39,2013-05-29 08:14:00,
2013-05-29 02:19:00,50.5,39.6,29.74,WSW,242,2.0,10.0,66,0.00,,,0.00,WeatherCatV1.11B39,2013-05-29 08:19:00,
2013-05-29 02:24:00,50.3,39.4,29.74,WNW,300,3.0,12.0,66,0.00,,,0.00,WeatherCatV1.11B39,2013-05-29 08:24:00,
2013-05-29 02:29:00,50.1,39.6,29.74,WNW,284,8.0,12.0,67,0.00,,,0.00,WeatherCatV1.11B39,2013-05-29 08:29:00,
2013-05-29 02:34:00,50.0,39.5,29.74,West,259,4.0,9.0,67,0.00,,,0.00,WeatherCatV1.11B39,2013-05-29 08:34:00,
2013-05-29 02:39:00,49.8,39.7,29.74,WSW,250,5.0,9.0,68,0.00,,,0.00,WeatherCatV1.11B39,2013-05-29 08:39:00,
2013-05-29 02:44:00,49.5,39.8,29.75,WSW,252,7.0,11.0,69,0.00,,,0.00,WeatherCatV1.11B39,2013-05-29 08:44:00,
2013-05-29 02:49:00,49.3,39.6,29.75,WSW,243,4.0,11.0,69,0.00,,,0.00,WeatherCatV1.11B39,2013-05-29 08:49:00,
2013-05-29 02:54:00,49.1,40.1,29.75,West,267,4.0,10.0,71,0.00,,,0.00,WeatherCatV1.11B39,2013-05-29 08:54:00,
2013-05-29 02:59:00,48.8,40.2,29.75,SSW,213,4.0,6.0,72,0.00,,,0.00,WeatherCatV1.11B39,2013-05-29 08:59:00,
2013-05-29 03:04:00,48.7,40.1,29.76,SW,217,0.0,6.0,72,0.00,,,0.00,WeatherCatV1.11B39,2013-05-29 09:04:00,
2013-05-29 03:09:00,48.4,40.1,29.77,South,172,11.0,11.0,73,0.00,,,0.00,WeatherCatV1.11B39,2013-05-29 09:09:00,
2013-05-29 03:14:00,48.1,40.6,29.77,SSE,166,10.0,10.0,75,0.00,,,0.00,WeatherCatV1.11B39,2013-05-29 09:14:00,
2013-05-29 03:19:00,47.4,39.9,29.77,South,176,0.0,2.0,75,0.00,,,0.00,WeatherCatV1.11B39,2013-05-29 09:19:00,
2013-05-29 03:24:00,47.0,41.2,29.77,South,175,0.0,3.0,80,0.00,,,0.01,WeatherCatV1.11B39,2013-05-29 09:24:00,
2013-05-29 03:29:00,46.4,40.9,29.76,South,175,0.0,1.0,81,0.00,,,0.01,WeatherCatV1.11B39,2013-05-29 09:29:00,
2013-05-29 03:34:00,45.7,40.8,29.75,ENE,72,1.0,3.0,83,0.00,,,0.01,WeatherCatV1.11B39,2013-05-29 09:34:00,
2013-05-29 03:39:00,45.3,41.1,29.74,ENE,71,0.0,1.0,85,0.04,,,0.02,WeatherCatV1.11B39,2013-05-29 09:39:00,
2013-05-29 03:44:00,45.0,41.1,29.76,ESE,111,0.0,3.0,86,0.04,,,0.02,WeatherCatV1.11B39,2013-05-29 09:44:00,
2013-05-29 03:49:00,44.8,40.9,29.76,ESE,111,0.0,0.0,86,0.04,,,0.02,WeatherCatV1.11B39,2013-05-29 09:49:00,
2013-05-29 03:54:00,44.6,41.3,29.76,WSW,247,1.0,3.0,88,0.00,,,0.02,WeatherCatV1.11B39,2013-05-29 09:54:00,
2013-05-29 03:59:00,44.6,41.6,29.76,WSW,247,0.0,0.0,89,0.00,,,0.03,WeatherCatV1.11B39,2013-05-29 09:59:00,
2013-05-29 04:04:00,44.5,41.5,29.76,WSW,247,0.0,1.0,89,0.00,,,0.03,WeatherCatV1.11B39,2013-05-29 10:04:00,
2013-05-29 04:09:00,44.5,41.8,29.75,WSW,247,0.0,1.0,90,0.00,,,0.03,WeatherCatV1.11B39,2013-05-29 10:09:00,
2013-05-29 04:14:00,44.5,41.8,29.75,WSW,247,0.0,0.0,90,0.00,,,0.03,WeatherCatV1.11B39,2013-05-29 10:14:00,
2013-05-29 04:19:00,44.4,41.7,29.75,WSW,247,0.0,0.0,90,0.00,,,0.03,WeatherCatV1.11B39,2013-05-29 10:19:00,
2013-05-29 04:24:00,44.4,41.7,29.75,WSW,247,0.0,0.0,90,0.00,,,0.04,WeatherCatV1.11B39,2013-05-29 10:24:00,
2013-05-29 04:29:00,44.3,41.6,29.75,WSW,247,0.0,0.0,90,0.00,,,0.04,WeatherCatV1.11B39,2013-05-29 10:29:00,
2013-05-29 04:34:00,44.2,41.5,29.75,WSW,247,0.0,0.0,90,0.00,,,0.04,WeatherCatV1.11B39,2013-05-29 10:34:00,
2013-05-29 04:39:00,44.2,41.7,29.75,WSW,247,0.0,0.0,91,0.00,,,0.04,WeatherCatV1.11B39,2013-05-29 10:39:00,
2013-05-29 04:44:00,44.2,41.7,29.75,WSW,247,0.0,0.0,91,0.00,,,0.04,WeatherCatV1.11B39,2013-05-29 10:44:00,
2013-05-29 04:49:00,44.2,41.7,29.75,WSW,247,0.0,0.0,91,0.00,,,0.04,WeatherCatV1.11B39,2013-05-29 10:49:00,
2013-05-29 04:54:00,44.2,41.7,29.75,WSW,247,0.0,0.0,91,0.00,,,0.04,WeatherCatV1.11B39,2013-05-29 10:54:00,
2013-05-29 04:59:00,44.2,42.0,29.75,WSW,247,0.0,0.0,92,0.00,,,0.04,WeatherCatV1.11B39,2013-05-29 10:59:00,
2013-05-29 05:04:00,44.2,42.0,29.75,WSW,247,0.0,0.0,92,0.00,,,0.05,WeatherCatV1.11B39,2013-05-29 11:04:00,
2013-05-29 05:09:00,44.2,42.0,29.75,WSW,247,0.0,0.0,92,0.00,,,0.05,WeatherCatV1.11B39,2013-05-29 11:09:00,
2013-05-29 05:14:00,44.2,42.0,29.75,WSW,247,0.0,0.0,92,0.00,,,0.05,WeatherCatV1.11B39,2013-05-29 11:14:00,
2013-05-29 05:19:00,44.2,42.0,29.75,WSW,247,0.0,1.0,92,0.00,,,0.05,WeatherCatV1.11B39,2013-05-29 11:19:00,
2013-05-29 05:24:00,44.2,42.0,29.75,WSW,247,0.0,0.0,92,0.00,,,0.05,WeatherCatV1.11B39,2013-05-29 11:24:00,
2013-05-29 05:29:00,44.3,42.1,29.75,WSW,247,0.0,0.0,92,0.00,,,0.05,WeatherCatV1.11B39,2013-05-29 11:29:00,
2013-05-29 05:34:00,44.3,42.1,29.75,WSW,247,0.0,0.0,92,0.00,,,0.05,WeatherCatV1.11B39,2013-05-29 11:34:00,
2013-05-29 05:39:00,44.3,42.1,29.75,WSW,247,0.0,0.0,92,0.00,,,0.05,WeatherCatV1.11B39,2013-05-29 11:39:00,
2013-05-29 05:44:00,44.3,42.4,29.75,WSW,247,0.0,1.0,93,0.00,,,0.05,WeatherCatV1.11B39,2013-05-29 11:44:00,
2013-05-29 05:49:00,44.4,42.5,29.74,WSW,247,0.0,1.0,93,0.00,,,0.05,WeatherCatV1.11B39,2013-05-29 11:49:00,
2013-05-29 05:54:00,44.4,42.5,29.75,WSW,247,0.0,1.0,93,0.00,,,0.05,WeatherCatV1.11B39,2013-05-29 11:54:00,
2013-05-29 05:59:00,44.4,42.5,29.75,WSW,247,0.0,1.0,93,0.00,,,0.05,WeatherCatV1.11B39,2013-05-29 11:59:00,
2013-05-29 06:04:00,44.4,42.5,29.76,WSW,247,2.0,2.0,93,0.00,,,0.05,WeatherCatV1.11B39,2013-05-29 12:04:00,
2013-05-29 06:09:00,44.2,42.0,29.76,SW,226,0.0,5.0,92,0.00,,,0.06,WeatherCatV1.11B39,2013-05-29 12:09:00,
2013-05-29 06:14:00,44.0,41.3,29.75,SSE,149,2.0,7.0,90,0.00,,,0.06,WeatherCatV1.11B39,2013-05-29 12:14:00,
2013-05-29 06:19:00,43.9,40.9,29.75,SSE,161,4.0,5.0,89,0.00,,,0.06,WeatherCatV1.11B39,2013-05-29 12:19:00,
2013-05-29 06:24:00,44.1,40.2,29.74,SSW,213,3.0,6.0,86,0.00,,,0.06,WeatherCatV1.11B39,2013-05-29 12:24:00,
2013-05-29 06:29:00,44.2,40.9,29.75,South,173,2.0,2.0,88,0.00,,,0.06,WeatherCatV1.11B39,2013-05-29 12:29:00,
2013-05-29 06:34:00,44.2,41.2,29.75,South,173,0.0,0.0,89,0.00,,,0.06,WeatherCatV1.11B39,2013-05-29 12:34:00,
2013-05-29 06:39:00,44.1,41.4,29.75,South,173,2.0,2.0,90,0.00,,,0.06,WeatherCatV1.11B39,2013-05-29 12:39:00,
2013-05-29 06:44:00,43.9,41.2,29.74,South,173,0.0,2.0,90,0.00,,,0.06,WeatherCatV1.11B39,2013-05-29 12:44:00,
2013-05-29 06:49:00,43.8,41.3,29.74,South,173,0.0,1.0,91,0.00,,,0.06,WeatherCatV1.11B39,2013-05-29 12:49:00,
2013-05-29 06:54:00,43.7,41.2,29.74,South,173,0.0,0.0,91,0.00,,,0.07,WeatherCatV1.11B39,2013-05-29 12:54:00,
2013-05-29 06:59:00,43.6,41.1,29.74,South,173,0.0,0.0,91,0.00,,,0.07,WeatherCatV1.11B39,2013-05-29 12:59:00,
2013-05-29 07:04:00,43.6,41.1,29.74,South,173,0.0,0.0,91,0.00,,,0.07,WeatherCatV1.11B39,2013-05-29 13:04:00,
2013-05-29 07:09:00,43.7,41.5,29.74,South,173,0.0,0.0,92,0.00,,,0.07,WeatherCatV1.11B39,2013-05-29 13:09:00,
2013-05-29 07:14:00,43.8,41.6,29.74,NE,44,1.0,4.0,92,0.00,,,0.07,WeatherCatV1.11B39,2013-05-29 13:14:00,
2013-05-29 07:19:00,44.0,41.8,29.75,NE,42,0.0,0.0,92,0.00,,,0.07,WeatherCatV1.11B39,2013-05-29 13:19:00,
2013-05-29 07:24:00,44.1,41.9,29.75,NE,47,0.0,4.0,92,0.00,,,0.07,WeatherCatV1.11B39,2013-05-29 13:24:00,
2013-05-29 07:29:00,44.2,41.7,29.75,NE,47,0.0,0.0,91,0.00,,,0.07,WeatherCatV1.11B39,2013-05-29 13:29:00,
2013-05-29 07:34:00,44.3,41.8,29.74,NE,47,0.0,0.0,91,0.00,,,0.07,WeatherCatV1.11B39,2013-05-29 13:34:00,
2013-05-29 07:39:00,44.3,41.8,29.74,NE,47,0.0,0.0,91,0.00,,,0.07,WeatherCatV1.11B39,2013-05-29 13:39:00,
2013-05-29 07:44:00,44.5,42.0,29.75,NE,49,0.0,2.0,91,0.00,,,0.07,WeatherCatV1.11B39,2013-05-29 13:44:00,
2013-05-29 07:49:00,44.7,42.2,29.75,NE,49,0.0,0.0,91,0.00,,,0.08,WeatherCatV1.11B39,2013-05-29 13:49:00,
2013-05-29 07:54:00,45.1,42.3,29.75,NE,49,0.0,0.0,90,0.00,,,0.08,WeatherCatV1.11B39,2013-05-29 13:54:00,
2013-05-29 07:59:00,45.6,42.8,29.75,NE,49,0.0,0.0,90,0.00,,,0.08,WeatherCatV1.11B39,2013-05-29 13:59:00,
2013-05-29 08:04:00,46.3,43.2,29.74,NE,49,0.0,1.0,89,0.00,,,0.08,WeatherCatV1.11B39,2013-05-29 14:04:00,
2013-05-29 08:09:00,46.8,43.4,29.74,NE,49,0.0,2.0,88,0.00,,,0.08,WeatherCatV1.11B39,2013-05-29 14:09:00,
2013-05-29 08:14:00,47.1,43.1,29.74,NE,49,0.0,0.0,86,0.00,,,0.08,WeatherCatV1.11B39,2013-05-29 14:14:00,
2013-05-29 08:19:00,47.2,42.9,29.74,WNW,285,4.0,4.0,85,0.00,,,0.08,WeatherCatV1.11B39,2013-05-29 14:19:00,
2013-05-29 08:24:00,47.6,43.6,29.74,WSW,239,1.0,4.0,86,0.00,,,0.08,WeatherCatV1.11B39,2013-05-29 14:24:00,
2013-05-29 08:29:00,48.3,42.7,29.75,NW,310,7.0,11.0,81,0.00,,,0.08,WeatherCatV1.11B39,2013-05-29 14:29:00,
2013-05-29 08:34:00,48.7,42.2,29.75,WNW,303,9.0,12.0,78,0.00,,,0.08,WeatherCatV1.11B39,2013-05-29 14:34:00,
2013-05-29 08:39:00,48.7,41.1,29.75,West,266,8.0,11.0,75,0.00,,,0.08,WeatherCatV1.11B39,2013-05-29 14:39:00,
2013-05-29 08:44:00,48.4,40.5,29.75,WNW,294,7.0,13.0,74,0.00,,,0.09,WeatherCatV1.11B39,2013-05-29 14:44:00,
2013-05-29 08:49:00,48.1,40.2,29.75,West,270,4.0,5.0,74,0.00,,,0.09,WeatherCatV1.11B39,2013-05-29 14:49:00,
2013-05-29 08:54:00,47.6,39.0,29.75,SSW,209,5.0,9.0,72,0.00,,,0.09,WeatherCatV1.11B39,2013-05-29 14:54:00,
2013-05-29 08:59:00,47.6,39.7,29.75,SW,223,11.0,11.0,74,0.00,,,0.09,WeatherCatV1.11B39,2013-05-29 14:59:00,
2013-05-29 09:04:00,47.6,39.7,29.74,WSW,254,0.0,6.0,74,0.00,,,0.09,WeatherCatV1.11B39,2013-05-29 15:04:00,
2013-05-29 09:09:00,47.9,40.4,29.74,WSW,252,2.0,5.0,75,0.00,,,0.09,WeatherCatV1.11B39,2013-05-29 15:09:00,
2013-05-29 09:14:00,48.6,41.0,29.74,WSW,251,0.0,1.0,75,0.00,,,0.09,WeatherCatV1.11B39,2013-05-29 15:14:00,
2013-05-29 09:19:00,49.6,42.0,29.74,WNW,284,0.0,4.0,75,0.00,,,0.09,WeatherCatV1.11B39,2013-05-29 15:19:00,
2013-05-29 09:24:00,51.0,43.0,29.73,WNW,290,0.0,3.0,74,0.00,,,0.09,WeatherCatV1.11B39,2013-05-29 15:24:00,
2013-05-29 09:29:00,52.3,42.1,29.73,WNW,282,1.0,7.0,68,0.00,,,0.09,WeatherCatV1.11B39,2013-05-29 15:29:00,
2013-05-29 09:34:00,52.6,42.7,29.73,WNW,298,0.0,3.0,69,0.00,,,0.09,WeatherCatV1.11B39,2013-05-29 15:34:00,
2013-05-29 09:39:00,52.8,43.7,29.73,SW,232,8.0,8.0,71,0.00,,,0.10,WeatherCatV1.11B39,2013-05-29 15:39:00,
2013-05-29 09:44:00,53.3,41.8,29.73,WNW,284,0.0,1.0,65,0.00,,,0.10,WeatherCatV1.11B39,2013-05-29 15:44:00,
2013-05-29 09:46:00,53.6,42.9,29.73,West,260,1.0,7.0,67,0.00,,,0.10,WeatherCatV1.11B39,2013-05-29 15:46:00,
2013-05-29 09:51:00,54.0,41.3,29.73,SSE,164,2.0,7.0,62,0.00,,,0.10,WeatherCatV1.11B39,2013-05-29 15:51:00,
2013-05-29 09:56:00,53.2,41.7,29.73,WSW,250,0.0,2.0,65,0.00,,,0.10,WeatherCatV1.11B39,2013-05-29 15:56:00,
2013-05-29 10:01:00,53.0,41.2,29.72,SSW,213,0.0,6.0,64,0.00,,,0.10,WeatherCatV1.11B39,2013-05-29 16:01:00,
2013-05-29 10:06:00,52.8,40.6,29.72,NW,326,6.0,7.0,63,0.00,,,0.10,WeatherCatV1.11B39,2013-05-29 16:06:00,
2013-05-29 10:11:00,53.0,41.2,29.72,WNW,294,3.0,7.0,64,0.00,,,0.10,WeatherCatV1.11B39,2013-05-29 16:11:00,
2013-05-29 10:16:00,53.5,39.5,29.72,SW,234,0.0,6.0,59,0.00,,,0.10,WeatherCatV1.11B39,2013-05-29 16:16:00,
2013-05-29 10:21:00,54.0,40.9,29.72,NW,311,10.0,13.0,61,0.00,,,0.10,WeatherCatV1.11B39,2013-05-29 16:21:00,
2013-05-29 10:26:00,55.0,42.6,29.71,West,267,6.0,16.0,63,0.00,,,0.10,WeatherCatV1.11B39,2013-05-29 16:26:00,
2013-05-29 10:31:00,56.0,41.0,29.72,NW,308,3.0,10.0,57,0.00,,,0.10,WeatherCatV1.11B39,2013-05-29 16:31:00,
2013-05-29 10:36:00,56.4,40.4,29.72,WSW,256,4.0,9.0,55,0.00,,,0.11,WeatherCatV1.11B39,2013-05-29 16:36:00,
2013-05-29 10:41:00,56.4,39.5,29.71,WSW,249,5.0,10.0,53,0.00,,,0.11,WeatherCatV1.11B39,2013-05-29 16:41:00,
2013-05-29 10:46:00,55.8,39.4,29.71,SW,219,4.0,6.0,54,0.00,,,0.11,WeatherCatV1.11B39,2013-05-29 16:46:00,
2013-05-29 10:51:00,55.4,40.4,29.71,SSW,196,2.0,10.0,57,0.00,,,0.11,WeatherCatV1.11B39,2013-05-29 16:51:00,
2013-05-29 10:56:00,55.0,39.1,29.71,West,269,12.0,14.0,55,0.00,,,0.11,WeatherCatV1.11B39,2013-05-29 16:56:00,
2013-05-29 11:01:00,55.6,40.2,29.71,SSW,202,7.0,8.0,56,0.00,,,0.11,WeatherCatV1.11B39,2013-05-29 17:01:00,
2013-05-29 11:06:00,55.6,41.1,29.71,SSE,150,11.0,14.0,58,0.00,,,0.11,WeatherCatV1.11B39,2013-05-29 17:06:00,
2013-05-29 11:11:00,55.1,38.8,29.71,WNW,290,10.0,10.0,54,0.00,,,0.11,WeatherCatV1.11B39,2013-05-29 17:11:00,
2013-05-29 11:16:00,56.1,41.1,29.71,South,169,2.0,12.0,57,0.00,,,0.11,WeatherCatV1.11B39,2013-05-29 17:16:00,
2013-05-29 11:21:00,56.7,38.3,29.71,SSW,211,3.0,4.0,50,0.00,,,0.11,WeatherCatV1.11B39,2013-05-29 17:21:00,
2013-05-29 11:26:00,56.8,41.3,29.71,SSE,167,9.0,11.0,56,0.00,,,0.11,WeatherCatV1.11B39,2013-05-29 17:26:00,
2013-05-29 11:31:00,56.0,38.1,29.71,SW,236,7.0,12.0,51,0.00,,,0.11,WeatherCatV1.11B39,2013-05-29 17:31:00,
2013-05-29 11:36:00,56.1,39.2,29.71,SW,221,1.0,6.0,53,0.00,,,0.11,WeatherCatV1.11B39,2013-05-29 17:36:00,
2013-05-29 11:41:00,57.1,39.6,29.71,WNW,288,1.0,7.0,52,0.00,,,0.11,WeatherCatV1.11B39,2013-05-29 17:41:00,
2013-05-29 11:46:00,58.0,40.5,29.71,South,181,14.0,15.0,52,0.00,,,0.11,WeatherCatV1.11B39,2013-05-29 17:46:00,
2013-05-29 11:51:00,58.0,39.5,29.71,WSW,238,7.0,12.0,50,0.00,,,0.11,WeatherCatV1.11B39,2013-05-29 17:51:00,
2013-05-29 11:56:00,58.1,41.1,29.71,SW,229,7.0,10.0,53,0.00,,,0.11,WeatherCatV1.11B39,2013-05-29 17:56:00,
2013-05-29 12:01:00,58.6,39.5,29.71,SSW,209,7.0,11.0,49,0.00,,,0.11,WeatherCatV1.11B39,2013-05-29 18:01:00,
2013-05-29 12:06:00,58.9,37.6,29.71,SE,140,5.0,10.0,45,0.00,,,0.11,WeatherCatV1.11B39,2013-05-29 18:06:00,
2013-05-29 12:11:00,59.6,39.3,29.72,WSW,238,7.0,13.0,47,0.00,,,0.11,WeatherCatV1.11B39,2013-05-29 18:11:00,
2013-05-29 12:16:00,60.2,39.3,29.72,SW,223,9.0,11.0,46,0.00,,,0.11,WeatherCatV1.11B39,2013-05-29 18:16:00,
2013-05-29 12:21:00,59.9,38.5,29.72,SE,142,7.0,11.0,45,0.00,,,0.11,WeatherCatV1.11B39,2013-05-29 18:21:00,
2013-05-29 12:26:00,59.4,40.8,29.72,SSW,194,4.0,13.0,50,0.00,,,0.11,WeatherCatV1.11B39,2013-05-29 18:26:00,
2013-05-29 12:31:00,58.0,40.0,29.72,WSW,240,14.0,19.0,51,0.00,,,0.11,WeatherCatV1.11B39,2013-05-29 18:31:00,
2013-05-29 12:36:00,57.8,39.8,29.73,West,272,9.0,13.0,51,0.00,,,0.11,WeatherCatV1.11B39,2013-05-29 18:36:00,
2013-05-29 12:41:00,58.1,39.6,29.73,WNW,302,3.0,9.0,50,0.00,,,0.11,WeatherCatV1.11B39,2013-05-29 18:41:00,
2013-05-29 12:46:00,58.3,39.2,29.73,WNW,286,6.0,16.0,49,0.00,,,0.11,WeatherCatV1.11B39,2013-05-29 18:46:00,
2013-05-29 12:51:00,57.8,38.2,29.74,West,279,10.0,15.0,48,0.00,,,0.11,WeatherCatV1.11B39,2013-05-29 18:51:00,
2013-05-29 12:56:00,56.8,41.7,29.74,West,279,5.0,13.0,57,0.00,,,0.11,WeatherCatV1.11B39,2013-05-29 18:56:00,
2013-05-29 13:01:00,55.2,39.8,29.74,SSW,192,4.0,10.0,56,0.00,,,0.11,WeatherCatV1.11B39,2013-05-29 19:01:00,
2013-05-29 13:06:00,54.0,39.6,29.73,WNW,287,6.0,14.0,58,0.00,,,0.11,WeatherCatV1.11B39,2013-05-29 19:06:00,
2013-05-29 13:11:00,53.7,39.3,29.73,WNW,296,3.0,5.0,58,0.00,,,0.11,WeatherCatV1.11B39,2013-05-29 19:11:00,
2013-05-29 13:16:00,54.1,38.3,29.73,NW,304,14.0,14.0,55,0.00,,,0.11,WeatherCatV1.11B39,2013-05-29 19:16:00,
2013-05-29 13:21:00,54.8,37.5,29.72,West,271,4.0,19.0,52,0.00,,,0.11,WeatherCatV1.11B39,2013-05-29 19:21:00,
2013-05-29 13:26:00,54.9,37.6,29.73,West,271,5.0,9.0,52,0.00,,,0.11,WeatherCatV1.11B39,2013-05-29 19:26:00,
2013-05-29 13:31:00,55.1,37.8,29.73,WSW,248,11.0,11.0,52,0.00,,,0.11,WeatherCatV1.11B39,2013-05-29 19:31:00,
2013-05-29 13:36:00,55.7,39.3,29.72,WSW,240,6.0,11.0,54,0.00,,,0.11,WeatherCatV1.11B39,2013-05-29 19:36:00,
2013-05-29 13:41:00,57.0,38.0,29.71,WSW,258,5.0,7.0,49,0.00,,,0.11,WeatherCatV1.11B39,2013-05-29 19:41:00,
2013-05-29 13:46:00,58.5,39.9,29.71,West,276,19.0,19.0,50,0.00,,,0.11,WeatherCatV1.11B39,2013-05-29 19:46:00,
2013-05-29 13:51:00,59.8,40.6,29.71,West,265,19.0,19.0,49,0.00,,,0.11,WeatherCatV1.11B39,2013-05-29 19:51:00,
2013-05-29 13:56:00,60.8,39.9,29.71,WNW,300,10.0,11.0,46,0.00,,,0.11,WeatherCatV1.11B39,2013-05-29 19:56:00,
2013-05-29 14:01:00,61.6,38.9,29.71,West,267,10.0,16.0,43,0.00,,,0.11,WeatherCatV1.11B39,2013-05-29 20:01:00,
2013-05-29 14:06:00,62.2,38.8,29.71,WNW,284,12.0,22.0,42,0.00,,,0.11,WeatherCatV1.11B39,2013-05-29 20:06:00,
2013-05-29 14:11:00,62.2,39.4,29.71,West,269,16.0,19.0,43,0.00,,,0.11,WeatherCatV1.11B39,2013-05-29 20:11:00,
2013-05-29 14:16:00,62.1,38.7,29.72,WSW,252,19.0,20.0,42,0.00,,,0.11,WeatherCatV1.11B39,2013-05-29 20:16:00,
2013-05-29 14:21:00,61.4,38.1,29.71,WNW,288,4.0,17.0,42,0.00,,,0.11,WeatherCatV1.11B39,2013-05-29 20:21:00,
2013-05-29 14:26:00,60.9,38.8,29.72,WNW,295,5.0,19.0,44,0.00,,,0.11,WeatherCatV1.11B39,2013-05-29 20:26:00,
2013-05-29 14:31:00,60.3,37.7,29.72,WSW,242,22.0,23.0,43,0.00,,,0.11,WeatherCatV1.11B39,2013-05-29 20:31:00,
2013-05-29 14:36:00,59.2,36.7,29.72,West,262,9.0,16.0,43,0.00,,,0.11,WeatherCatV1.11B39,2013-05-29 20:36:00,
2013-05-29 14:41:00,59.7,38.3,29.72,NW,304,14.0,17.0,45,0.00,,,0.11,WeatherCatV1.11B39,2013-05-29 20:41:00,
2013-05-29 14:46:00,60.4,39.0,29.73,WNW,286,16.0,22.0,45,0.00,,,0.11,WeatherCatV1.11B39,2013-05-29 20:46:00,
2013-05-29 14:51:00,60.0,37.4,29.72,NNW,328,12.0,20.0,43,0.00,,,0.11,WeatherCatV1.11B39,2013-05-29 20:51:00,
2013-05-29 14:56:00,59.5,38.1,29.72,NW,309,6.0,8.0,45,0.00,,,0.11,WeatherCatV1.11B39,2013-05-29 20:56:00,
2013-05-29 15:01:00,59.5,38.1,29.72,WNW,294,7.0,14.0,45,0.00,,,0.11,WeatherCatV1.11B39,2013-05-29 21:01:00,
2013-05-29 15:06:00,59.9,37.3,29.72,WNW,302,2.0,9.0,43,0.00,,,0.11,WeatherCatV1.11B39,2013-05-29 21:06:00,
2013-05-29 15:11:00,60.1,38.1,29.71,WNW,283,3.0,14.0,44,0.00,,,0.11,WeatherCatV1.11B39,2013-05-29 21:11:00,
2013-05-29 15:16:00,60.3,35.2,29.72,West,269,9.0,11.0,39,0.00,,,0.11,WeatherCatV1.11B39,2013-05-29 21:16:00,
2013-05-29 15:21:00,60.5,36.7,29.72,WNW,283,7.0,8.0,41,0.00,,,0.11,WeatherCatV1.11B39,2013-05-29 21:21:00,
2013-05-29 15:26:00,61.2,37.9,29.71,WNW,302,9.0,9.0,42,0.00,,,0.11,WeatherCatV1.11B39,2013-05-29 21:26:00,
2013-05-29 15:31:00,62.2,34.2,29.71,NW,313,10.0,19.0,35,0.00,,,0.11,WeatherCatV1.11B39,2013-05-29 21:31:00,
2013-05-29 15:36:00,62.7,33.9,29.71,West,277,6.0,14.0,34,0.00,,,0.11,WeatherCatV1.11B39,2013-05-29 21:36:00,
2013-05-29 15:41:00,62.3,34.3,29.72,West,271,6.0,12.0,35,0.00,,,0.11,WeatherCatV1.11B39,2013-05-29 21:41:00,
2013-05-29 15:46:00,61.8,33.9,29.72,SW,220,3.0,4.0,35,0.00,,,0.11,WeatherCatV1.11B39,2013-05-29 21:46:00,
2013-05-29 15:51:00,61.7,35.2,29.72,WNW,294,6.0,13.0,37,0.00,,,0.11,WeatherCatV1.11B39,2013-05-29 21:51:00,
2013-05-29 15:56:00,61.5,33.6,29.71,WSW,242,2.0,14.0,35,0.00,,,0.11,WeatherCatV1.11B39,2013-05-29 21:56:00,
2013-05-29 16:01:00,61.9,34.7,29.71,West,265,4.0,12.0,36,0.00,,,0.11,WeatherCatV1.11B39,2013-05-29 22:01:00,
2013-05-29 16:06:00,61.8,33.9,29.71,NW,310,12.0,16.0,35,0.00,,,0.11,WeatherCatV1.11B39,2013-05-29 22:06:00,
2013-05-29 16:11:00,61.6,34.4,29.72,WSW,246,4.0,14.0,36,0.00,,,0.11,WeatherCatV1.11B39,2013-05-29 22:11:00,
2013-05-29 16:16:00,61.4,34.9,29.72,WSW,238,4.0,10.0,37,0.00,,,0.11,WeatherCatV1.11B39,2013-05-29 22:16:00,
2013-05-29 16:21:00,61.6,35.1,29.71,SW,233,2.0,4.0,37,0.00,,,0.11,WeatherCatV1.11B39,2013-05-29 22:21:00,
2013-05-29 16:26:00,62.1,35.5,29.71,WNW,302,10.0,10.0,37,0.00,,,0.11,WeatherCatV1.11B39,2013-05-29 22:26:00,
2013-05-29 16:31:00,62.4,33.7,29.71,WNW,303,14.0,20.0,34,0.00,,,0.11,WeatherCatV1.11B39,2013-05-29 22:31:00,
2013-05-29 16:36:00,62.5,36.5,29.72,West,270,6.0,13.0,38,0.00,,,0.11,WeatherCatV1.11B39,2013-05-29 22:36:00,
2013-05-29 16:41:00,62.8,34.0,29.72,NW,308,18.0,18.0,34,0.00,,,0.11,WeatherCatV1.11B39,2013-05-29 22:41:00,
2013-05-29 16:46:00,63.1,34.3,29.72,WSW,254,8.0,15.0,34,0.00,,,0.11,WeatherCatV1.11B39,2013-05-29 22:46:00,
2013-05-29 16:51:00,63.4,33.0,29.71,WNW,288,6.0,12.0,32,0.00,,,0.11,WeatherCatV1.11B39,2013-05-29 22:51:00,
2013-05-29 16:56:00,63.5,32.3,29.71,WSW,252,10.0,14.0,31,0.00,,,0.11,WeatherCatV1.11B39,2013-05-29 22:56:00,
2013-05-29 17:01:00,62.6,33.1,29.71,WSW,256,11.0,12.0,33,0.00,,,0.11,WeatherCatV1.11B39,2013-05-29 23:01:00,
2013-05-29 17:07:00,61.8,32.4,29.71,West,274,8.0,8.0,33,0.00,,,0.11,WeatherCatV1.11B39,2013-05-29 23:07:00,
2013-05-29 17:12:00,60.9,31.6,29.72,SW,227,0.0,10.0,33,0.00,,,0.11,WeatherCatV1.11B39,2013-05-29 23:12:00,
2013-05-29 17:17:00,60.4,31.9,29.72,West,261,6.0,12.0,34,0.00,,,0.11,WeatherCatV1.11B39,2013-05-29 23:17:00,
2013-05-29 17:22:00,60.3,32.5,29.72,WNW,290,5.0,11.0,35,0.00,,,0.11,WeatherCatV1.11B39,2013-05-29 23:22:00,
2013-05-29 17:27:00,60.4,32.6,29.72,West,279,8.0,12.0,35,0.00,,,0.11,WeatherCatV1.11B39,2013-05-29 23:27:00,
2013-05-29 17:32:00,60.6,32.1,29.72,WSW,241,10.0,10.0,34,0.00,,,0.11,WeatherCatV1.11B39,2013-05-29 23:32:00,
2013-05-29 17:37:00,60.4,34.7,29.72,West,281,7.0,7.0,38,0.00,,,0.11,WeatherCatV1.11B39,2013-05-29 23:37:00,
2013-05-29 17:42:00,59.9,31.5,29.72,WSW,246,10.0,14.0,34,0.00,,,0.11,WeatherCatV1.11B39,2013-05-29 23:42:00,
2013-05-29 17:47:00,59.7,32.0,29.73,WNW,296,1.0,9.0,35,0.00,,,0.11,WeatherCatV1.11B39,2013-05-29 23:47:00,
2013-05-29 17:52:00,59.5,33.2,29.73,NNW,327,9.0,13.0,37,0.00,,,0.11,WeatherCatV1.11B39,2013-05-29 23:52:00,
2013-05-29 17:57:00,59.0,34.7,29.73,NW,311,8.0,13.0,40,0.00,,,0.11,WeatherCatV1.11B39,2013-05-29 23:57:00,
2013-05-29 18:02:00,58.5,34.9,29.74,NW,304,3.0,15.0,41,0.00,,,0.11,WeatherCatV1.11B39,2013-05-30 00:02:00,
2013-05-29 18:07:00,57.9,34.9,29.74,NW,311,3.0,8.0,42,0.00,,,0.11,WeatherCatV1.11B39,2013-05-30 00:07:00,
2013-05-29 18:12:00,57.3,33.8,29.74,NW,317,4.0,15.0,41,0.00,,,0.11,WeatherCatV1.11B39,2013-05-30 00:12:00,
2013-05-29 18:17:00,56.7,33.9,29.75,WNW,302,10.0,13.0,42,0.00,,,0.11,WeatherCatV1.11B39,2013-05-30 00:17:00,
2013-05-29 18:22:00,56.2,34.0,29.75,WNW,303,2.0,14.0,43,0.00,,,0.11,WeatherCatV1.11B39,2013-05-30 00:22:00,
2013-05-29 18:27:00,56.0,34.4,29.75,WNW,297,2.0,7.0,44,0.00,,,0.11,WeatherCatV1.11B39,2013-05-30 00:27:00,
2013-05-29 18:32:00,55.7,34.7,29.76,NNW,336,9.0,11.0,45,0.00,,,0.11,WeatherCatV1.11B39,2013-05-30 00:32:00,
2013-05-29 18:37:00,55.3,34.3,29.76,NW,324,4.0,10.0,45,0.00,,,0.11,WeatherCatV1.11B39,2013-05-30 00:37:00,
2013-05-29 18:42:00,54.9,34.5,29.76,NW,313,6.0,15.0,46,0.00,,,0.11,WeatherCatV1.11B39,2013-05-30 00:42:00,
2013-05-29 18:47:00,54.4,35.1,29.77,NW,326,6.0,12.0,48,0.00,,,0.11,WeatherCatV1.11B39,2013-05-30 00:47:00,
2013-05-29 18:52:00,53.9,35.7,29.77,NW,317,8.0,19.0,50,0.00,,,0.11,WeatherCatV1.11B39,2013-05-30 00:52:00,
2013-05-29 18:57:00,53.4,36.2,29.77,NW,317,2.0,12.0,52,0.00,,,0.11,WeatherCatV1.11B39,2013-05-30 00:57:00,
2013-05-29 19:01:00,53.1,36.4,29.77,NNW,328,11.0,16.0,53,0.00,,,0.11,WeatherCatV1.11B39,2013-05-30 01:01:00,
2013-05-29 19:06:00,52.8,35.7,29.78,NW,304,7.0,11.0,52,0.00,,,0.11,WeatherCatV1.11B39,2013-05-30 01:06:00,
2013-05-29 19:11:00,53.0,35.8,29.78,NW,307,6.0,7.0,52,0.00,,,0.11,WeatherCatV1.11B39,2013-05-30 01:11:00,
2013-05-29 19:16:00,53.3,35.1,29.78,WNW,292,4.0,8.0,50,0.00,,,0.11,WeatherCatV1.11B39,2013-05-30 01:16:00,
2013-05-29 19:21:00,53.8,35.6,29.78,NW,304,9.0,11.0,50,0.00,,,0.11,WeatherCatV1.11B39,2013-05-30 01:21:00,
2013-05-29 19:26:00,54.1,34.8,29.78,WNW,294,2.0,10.0,48,0.00,,,0.11,WeatherCatV1.11B39,2013-05-30 01:26:00,
2013-05-29 19:31:00,54.2,35.5,29.78,NNW,346,5.0,7.0,49,0.00,,,0.11,WeatherCatV1.11B39,2013-05-30 01:31:00,
2013-05-29 19:36:00,54.2,35.5,29.78,NE,35,1.0,7.0,49,0.00,,,0.11,WeatherCatV1.11B39,2013-05-30 01:36:00,
2013-05-29 19:41:00,54.0,35.3,29.79,WNW,293,9.0,11.0,49,0.00,,,0.11,WeatherCatV1.11B39,2013-05-30 01:41:00,
2013-05-29 19:46:00,53.7,35.5,29.80,NW,311,7.0,7.0,50,0.00,,,0.11,WeatherCatV1.11B39,2013-05-30 01:46:00,
2013-05-29 19:51:00,53.4,35.7,29.81,NNW,341,8.0,13.0,51,0.00,,,0.11,WeatherCatV1.11B39,2013-05-30 01:51:00,
2013-05-29 19:56:00,53.1,35.5,29.81,NW,310,3.0,9.0,51,0.00,,,0.11,WeatherCatV1.11B39,2013-05-30 01:56:00,
2013-05-29 20:01:00,52.8,35.7,29.81,NW,321,1.0,13.0,52,0.00,,,0.11,WeatherCatV1.11B39,2013-05-30 02:01:00,
2013-05-29 20:06:00,52.4,35.8,29.82,NNW,329,4.0,9.0,53,0.00,,,0.11,WeatherCatV1.11B39,2013-05-30 02:06:00,
2013-05-29 20:11:00,52.1,35.5,29.81,WNW,293,2.0,8.0,53,0.00,,,0.11,WeatherCatV1.11B39,2013-05-30 02:11:00,
2013-05-29 20:16:00,51.9,35.3,29.82,WNW,286,1.0,8.0,53,0.00,,,0.11,WeatherCatV1.11B39,2013-05-30 02:16:00,
2013-05-29 20:21:00,51.9,35.3,29.82,NW,304,0.0,6.0,53,0.00,,,0.11,WeatherCatV1.11B39,2013-05-30 02:21:00,
2013-05-29 20:26:00,51.8,35.2,29.82,West,271,0.0,1.0,53,0.00,,,0.11,WeatherCatV1.11B39,2013-05-30 02:26:00,
2013-05-29 20:31:00,51.7,36.5,29.81,WSW,240,0.0,2.0,56,0.00,,,0.11,WeatherCatV1.11B39,2013-05-30 02:31:00,
2013-05-29 20:36:00,51.5,35.4,29.81,SE,143,0.0,2.0,54,0.00,,,0.11,WeatherCatV1.11B39,2013-05-30 02:36:00,
2013-05-29 20:41:00,51.4,35.3,29.81,SE,143,0.0,0.0,54,0.00,,,0.11,WeatherCatV1.11B39,2013-05-30 02:41:00,
2013-05-29 20:46:00,51.3,36.6,29.82,SE,143,0.0,1.0,57,0.00,,,0.11,WeatherCatV1.11B39,2013-05-30 02:46:00,
2013-05-29 20:51:00,51.1,35.5,29.82,SE,144,0.0,1.0,55,0.00,,,0.11,WeatherCatV1.11B39,2013-05-30 02:51:00,
2013-05-29 20:56:00,50.9,36.2,29.83,SE,143,0.0,0.0,57,0.00,,,0.11,WeatherCatV1.11B39,2013-05-30 02:56:00,
2013-05-29 21:01:00,50.7,36.0,29.83,SE,136,0.0,0.0,57,0.00,,,0.11,WeatherCatV1.11B39,2013-05-30 03:01:00,
2013-05-29 21:07:00,50.4,35.7,29.83,NNE,29,0.0,1.0,57,0.00,,,0.11,WeatherCatV1.11B39,2013-05-30 03:07:00,
2013-05-29 21:12:00,49.9,37.0,29.83,NNE,29,0.0,0.0,61,0.00,,,0.11,WeatherCatV1.11B39,2013-05-30 03:12:00,
2013-05-29 21:17:00,49.5,37.4,29.83,NNE,31,0.0,0.0,63,0.00,,,0.11,WeatherCatV1.11B39,2013-05-30 03:17:00,
2013-05-29 21:22:00,49.1,37.1,29.83,NNE,32,0.0,0.0,63,0.00,,,0.11,WeatherCatV1.11B39,2013-05-30 03:22:00,
2013-05-29 21:27:00,48.7,37.1,29.83,NNE,32,0.0,0.0,64,0.00,,,0.11,WeatherCatV1.11B39,2013-05-30 03:27:00,
2013-05-29 21:32:00,48.5,36.5,29.84,NNE,30,1.0,1.0,63,0.00,,,0.11,WeatherCatV1.11B39,2013-05-30 03:32:00,
2013-05-29 21:37:00,48.2,35.8,29.84,NNE,19,0.0,1.0,62,0.00,,,0.11,WeatherCatV1.11B39,2013-05-30 03:37:00,
2013-05-29 21:42:00,48.0,36.8,29.85,NNE,19,0.0,0.0,65,0.00,,,0.11,WeatherCatV1.11B39,2013-05-30 03:42:00,
2013-05-29 21:47:00,47.8,37.0,29.85,NNE,19,0.0,0.0,66,0.00,,,0.11,WeatherCatV1.11B39,2013-05-30 03:47:00,
2013-05-29 21:52:00,47.4,37.4,29.85,NNE,19,0.0,0.0,68,0.00,,,0.11,WeatherCatV1.11B39,2013-05-30 03:52:00,
2013-05-29 21:57:00,47.0,36.6,29.86,NNE,19,0.0,0.0,67,0.00,,,0.11,WeatherCatV1.11B39,2013-05-30 03:57:00,
2013-05-29 22:01:00,46.8,36.8,29.87,NNE,19,0.0,1.0,68,0.00,,,0.11,WeatherCatV1.11B39,2013-05-30 04:01:00,
2013-05-29 22:06:00,46.6,35.9,29.88,NNE,18,0.0,2.0,66,0.00,,,0.11,WeatherCatV1.11B39,2013-05-30 04:06:00,
2013-05-29 22:11:00,46.6,35.5,29.88,NNE,25,0.0,5.0,65,0.00,,,0.11,WeatherCatV1.11B39,2013-05-30 04:11:00,
2013-05-29 22:16:00,46.7,36.3,29.87,NNE,25,0.0,0.0,67,0.00,,,0.11,WeatherCatV1.11B39,2013-05-30 04:16:00,
2013-05-29 22:17:00,46.7,36.0,29.87,NNE,25,0.0,2.0,66,0.00,,,0.11,WeatherCatV1.11B39,2013-05-30 04:17:00,
2013-05-29 22:22:00,46.8,35.3,29.88,NNE,13,0.0,1.0,64,0.00,,,0.11,WeatherCatV1.11B39,2013-05-30 04:22:00,
2013-05-29 22:27:00,46.9,36.1,29.89,North,11,0.0,2.0,66,0.00,,,0.11,WeatherCatV1.11B39,2013-05-30 04:27:00,
2013-05-29 22:32:00,47.2,38.3,29.89,WNW,300,0.0,5.0,71,0.00,,,0.11,WeatherCatV1.11B39,2013-05-30 04:32:00,
2013-05-29 22:37:00,47.2,38.6,29.88,WNW,300,0.0,1.0,72,0.00,,,0.11,WeatherCatV1.11B39,2013-05-30 04:37:00,
2013-05-29 22:42:00,47.0,38.1,29.87,WNW,300,0.0,0.0,71,0.00,,,0.11,WeatherCatV1.11B39,2013-05-30 04:42:00,
2013-05-29 22:47:00,47.0,38.1,29.89,WNW,300,1.0,1.0,71,0.00,,,0.11,WeatherCatV1.11B39,2013-05-30 04:47:00,
2013-05-29 22:52:00,47.0,37.0,29.89,WNW,282,1.0,3.0,68,0.00,,,0.11,WeatherCatV1.11B39,2013-05-30 04:52:00,
2013-05-29 22:57:00,47.4,37.0,29.89,ESE,119,4.0,5.0,67,0.00,,,0.11,WeatherCatV1.11B39,2013-05-30 04:57:00,
2013-05-29 23:02:00,48.0,37.2,29.88,South,188,1.0,9.0,66,0.00,,,0.11,WeatherCatV1.11B39,2013-05-30 05:02:00,
2013-05-29 23:07:00,48.4,37.2,29.88,SSE,157,6.0,9.0,65,0.00,,,0.11,WeatherCatV1.11B39,2013-05-30 05:07:00,
2013-05-29 23:12:00,48.5,36.5,29.88,South,183,2.0,4.0,63,0.00,,,0.11,WeatherCatV1.11B39,2013-05-30 05:12:00,
2013-05-29 23:17:00,48.6,36.6,29.88,SW,232,0.0,1.0,63,0.00,,,0.11,WeatherCatV1.11B39,2013-05-30 05:17:00,
2013-05-29 23:22:00,48.6,36.2,29.88,WNW,293,6.0,8.0,62,0.00,,,0.11,WeatherCatV1.11B39,2013-05-30 05:22:00,
2013-05-29 23:27:00,48.8,36.0,29.88,West,274,0.0,1.0,61,0.00,,,0.11,WeatherCatV1.11B39,2013-05-30 05:27:00,
2013-05-29 23:32:00,48.9,37.3,29.87,West,274,0.0,0.0,64,0.00,,,0.11,WeatherCatV1.11B39,2013-05-30 05:32:00,
2013-05-29 23:37:00,48.8,38.0,29.87,West,274,0.0,0.0,66,0.00,,,0.11,WeatherCatV1.11B39,2013-05-30 05:37:00,
2013-05-29 23:42:00,48.5,37.3,29.87,NE,44,1.0,5.0,65,0.00,,,0.11,WeatherCatV1.11B39,2013-05-30 05:42:00,
2013-05-29 23:47:00,48.1,36.9,29.87,NE,51,0.0,4.0,65,0.00,,,0.11,WeatherCatV1.11B39,2013-05-30 05:47:00,
2013-05-29 23:52:00,47.9,36.7,29.87,NE,51,0.0,1.0,65,0.00,,,0.11,WeatherCatV1.11B39,2013-05-30 05:52:00,
2013-05-29 23:57:00,47.7,36.9,29.87,NE,51,1.0,1.0,66,0.00,,,0.11,WeatherCatV1.11B39,2013-05-30 05:57:00,